STARLINK-38144, 100256

Orbit data source: Space-Track

STARLINK-38144, 100256 is a payload satellite owned by SpaceX/Seattle (US) in SSO that was launched on Sat, 08 Aug 2026 UTC launched from the Air Force Western Test Range (AFWTR). Payload-class satellites include a variety of spacecraft equipped with specific instruments for various scientific and technological missions. These include communications satellites like Starlink; space stations such as the ISS; scientific satellites like the Hubble; Earth observation satellites from companies like Planet Labs, Umbra, and HawkEye 360; GPS; miniature CubeSats for education and research; and military/defense satellites.

Loading next visibility...
Identifier
100256, 2026-181L
Orbit
SSO
Country
Flag of USUS
Related business
Manufacturer
SpaceX/Seattle
Mission
Operational spacecraft
Bus & Motor
STARLINK V2MO, Unknown motor
Mass
575 kg wet, ~530 kg dry
Launch date (UTC)
2026-08-08 (1 month ago)
Launch vehicle
Unknown
Launch site
Air Force Western Test Range (AFWTR)
Object type
Payload
Rocket body
Debris
Shape & HBR
BOX + PAN, 17.7 m
Radar Cross Section
Large (>1 m²)

Expand to show TLE details & history
Last TLE update: 7 hours ago

TLE from 7 hours ago
0 STARLINK-38144
1 A0256U 26181L   26249.62884784  .00117903  00000-0  78119-3 0  9991
2 A0256  97.2864 292.4916 0001428 107.5995 252.5426 15.75168820  5773
Epoch: 2026-09-06T15:05Z
TLE epoch observation values (Epoch: 2026-09-06T15:05:32.453Z)
Latitude
-0.00004°
Longitude
80.38516°
Altitude
347.607 km
Speed
7.7 km/s
True Right ascension
19h 29m 57s
True Declination
0° 00' 00"
Sunlit
Object was in full shadow at epoch
Visualization orbit readout
Latitude
Unknown
Longitude
Unknown
Altitude
Unknown
Speed
Unknown
Apparent Right ascension
Unknown
Apparent Declination
Unknown
Sunlit
N/A
Visualization observer readout
Local Sidereal Time
13:51:04
Azimuth
Unknown
Elevation
Unknown
Doppler factor
Unknown
Orbital elements
Apogee altitude
341.998 km
Perigee altitude
340.079 km
Semi-major axis
6,719.175 km
Eccentricity
0.00014
Inclination
97.2864°
RAAN
292.4916°
Arg. of periapsis
107.5995°
True anomaly
252.52699°
Mean anomaly
252.5426°
Eccentric anomaly
252.5348°
Mean motion
3.94066 °/min
Orbital period
91.36 mins
BSTAR
0.00078119
Loading maneuver chart data...
Computing Atmospheric mass density...
Loading historical data...
Loading historical data...
Loading historical data...
Loading historical data...
Loading historical data...
Loading historical data...
Loading historical data...

Documentation

Showing up to 5 results
|